Showing default

COSMOS 2530, 43751

Orbit data source: Space-Track

COSMOS 2530, 43751 is a payload satellite owned by VVKO VKS (CIS) in LEO that was launched on Fri, 30 Nov 2018 UTC via an ROKOT launch vehicle from the Plesetsk Missile And Space Complex (PKMTR). Payload-class satellites include a variety of spacecraft equipped with specific instruments for various scientific and technological missions. These include communications satellites like Starlink; space stations such as the ISS; scientific satellites like the Hubble; Earth observation satellites from companies like Planet Labs, Umbra, and HawkEye 360; GPS; miniature CubeSats for education and research; and military/defense satellites.

Loading next visibility...
Identifier
43751, 2018-097A
Orbit
LEO
Country
Flag of CISCIS
Related business
Manufacturer
Resehetnev ISS
Mission
Operational Defense Communications
Bus & Motor
STRELA-3M, Unknown motor
Mass
280 kg wet, 280 kg dry
Launch date (UTC)
2018-11-30 (7 years ago)
Launch vehicle
ROKOT
Launch site
Plesetsk Missile And Space Complex (PKMTR)
Object type
Payload
Rocket body
Debris
Shape & HBR
Cyl + 1 Ant, 3.5 m
Radar Cross Section
1.583 m², Large (>1 m²)

Expand to show TLE details & history
Last TLE update: 9 hours ago

TLE from 9 hours ago
0 COSMOS 2530
1 43751U 18097A   25308.94909412  .00000034  00000-0  17197-3 0  9996
2 43751  82.5187   1.4811 0020296 161.9066 198.2741 12.42871925314434
Epoch: 2025-11-04T22:46Z
TLE epoch observation values (Epoch: 2025-11-04T22:46:41.731Z)
Latitude
0.00002°
Longitude
-24.62156°
Altitude
1,512.331 km
Speed
7.102 km/s
True Right ascension
00h 05m 55s
True Declination
0° 00' 00"
Sunlit
Object was in full shadow at epoch
Visualization orbit readout
Latitude
Unknown
Longitude
Unknown
Altitude
Unknown
Speed
Unknown
Apparent Right ascension
Unknown
Apparent Declination
Unknown
Sunlit
N/A
Visualization observer readout
Local Sidereal Time
03:48:50
Azimuth
Unknown
Elevation
Unknown
Doppler factor
Unknown
Orbital elements
Apogee altitude
1,507.776 km
Perigee altitude
1,475.83 km
Semi-major axis
7,869.94 km
Eccentricity
0.00203
Inclination
82.5187°
RAAN
1.4811°
Arg. of periapsis
161.9066°
True anomaly
198.20135°
Mean anomaly
198.2741°
Eccentric anomaly
198.23771°
Mean motion
3.10875 °/min
Orbital period
115.8 mins
BSTAR
0.00017197
Loading maneuver chart data...
Computing Atmospheric mass density...
Loading historical data...
Loading historical data...
Loading historical data...
Loading historical data...
Loading historical data...
Loading historical data...
Loading historical data...
Other satellites on launch #97 in the year 2018 (2018-11-30 UTC)

Documentation

Showing up to 5 results
|